Location: Emory University Observatory
(33.7903°N, 84.3267°W)
Time: 05:33:25
(UTC-05:00)

Hubble Space Telescope - Pass Details

Date: 12 October 2017
Orbit: 538 x 541 km, 28.5° (Epoch: 11 December)

Event Time Altitude Azimuth Distance (km) Brightness Sun altitude
Exits shadow 06:25:20 12° 208° (SSW) 1,668 3.0 -16.3°
Maximum altitude 06:25:38 12° 204° (SSW) 1,664 3.0 -16.3°
Drops below altitude 10° 06:27:13 10° 181° (S) 1,783 3.4 -15.9°
Sets 06:30:47 0° 149° (SSE) 2,671 4.7 -15.2°
